User: anonymous
Location: Hepcat Sky Observatory
(29.9800°N, 95.6500°W)
Time: 08:56:54
(UTC-05:00)
Language:

Cosmos 2151 Rocket - Orbit

View from above orbital plane
View from above orbital plane
View from above satellite
View from above satellite

Ground track
Ground track

The orbit data is extracted from the following two-line orbital elements,

1 21423U 91042B   14112.71470042  .00000488  00000-0  62612-4 0  6754
2 21423 082.4921 317.1570 0018931 064.7918 341.6801 14.79164942232334
Epoch (UTC): 22 April 2014 17:09:10
Eccentricity: 0.0018931
inclination: 82.4921°
perigee height: 618 km
apogee height: 645 km
right ascension of ascending node: 317.1570°
argument of perigee: 64.7918°
revolutions per day: 14.79164942
mean anomaly at epoch: 341.6801°
orbit number at epoch: 23233

The dashed part of the orbit path shows where the satellite is in the earth's shadow,  

DLR